Location: Huntsville
(34.7300°N, 86.5860°W)
Time: 07:03:27
(UTC-06:00)

ISS - Visible Passes

Search period start: 17 February 2019 00:00
Search period end: 27 February 2019 00:00
Orbit: 403 x 411 km, 51.6° (Epoch: 17 February)

Date Brightness Start Highest point End Pass type
(mag) Time Alt. Az. Time Alt. Az. Time Alt. Az.
19 Feb -0.6 05:55:31 10° SSE 05:57:12 13° SE 05:58:53 10° E visible
21 Feb -2.3 05:47:30 10° SSW 05:50:34 38° SE 05:53:37 10° ENE visible
22 Feb -1.1 04:56:53 10° S 04:59:14 18° SE 05:01:35 10° E visible
23 Feb -3.8 05:40:48 10° SW 05:44:02 66° NW 05:47:17 10° NE visible
24 Feb -3.3 04:51:46 41° S 04:52:34 55° SE 04:55:47 10° NE visible
25 Feb -0.8 04:02:57 16° E 04:02:57 16° E 04:03:56 10° ENE visible
25 Feb -2.5 05:35:41 15° W 05:37:38 25° NW 05:40:26 10° NNE visible
26 Feb -3.0 04:46:40 40° N 04:46:40 40° N 04:49:12 10° NE visible
